Regional Weather Roundup
Issued by NWS Sioux Falls, SD

Home | Current Version | Previous Version | Graphics & Text | Print | Product List | Glossary Off
Versions: 1 2 3 4 5 6 7 8 9 10 11 12 13 14 15 16 17 18 19 20 21 22 23 24 25 26 27 28 29 30 31 32 33 34 35 36 37 38 39 40 41 42 43 44 45 46 47 48 49 50

000
ASUS43 KFSD 040410
RWRFSD

WEATHER ROUNDUP FOR SE SOUTH DAKOTA/SW MINNESOTA/NW IOWA
NATIONAL WEATHER SERVICE SIOUX FALLS SD
1100 PM CDT SUN MAY 03 2015

NOTE: "FAIR" INDICATES FEW OR NO CLOUDS BELOW 12,000 FEET WITH NO
SIGNIFICANT WEATHER AND OR OBSTRUCTIONS TO VISIBILITY.


SDZ038>040-050-052>070-040500-
SOUTHEAST SOUTH DAKOTA

CITY           SKY/WX    TMP DP  RH WIND       PRES   REMARKS
BROOKINGS      CLEAR     54  30  40 NE5       30.01R
CHAMBERLAIN    PTCLDY    56  27  32 N7        30.02S
HURON          CLEAR     50  28  42 N8        30.01R
MADISON        FAIR      54  28  37 NE13      30.00R
MITCHELL       CLEAR     56  34  43 N10       30.01R
SIOUX FALLS    FAIR      57  34  41 N9        29.98R
WINNER         FAIR      54  28  36 NE9       30.03R
YANKTON        CLEAR     63  37  39 N10       29.97R
$$

MNZ071-072-080-081-089-090-097-098-040500-
SOUTHWEST MINNESOTA

CITY           SKY/WX    TMP DP  RH WIND       PRES   REMARKS
FAIRMONT       CLOUDY    63  43  48 N10       29.91S
JACKSON        MOCLDY    59  39  47 N13       29.95R
LUVERNE        PTCLDY    61  30  31 N9        29.98S
MARSHALL       CLEAR     55  25  30 N7        29.99R
MONTEVIDEO     CLEAR     54  27  35 CALM      30.01R
PIPESTONE      CLEAR     55  27  33 NE9       29.99R
REDWOOD FALLS  PTCLDY    61  31  32 N8        29.96R
TRACY          CLEAR     56  28  33 N7        29.99R
WINDOM         MOCLDY    57  41  54 CALM      29.95S
WORTHINGTON    PTCLDY    57  36  44 N13       29.97R
$$

IAZ001>003-012>014-020>022-031-032-NEZ013-014-SDZ071-040500-
NORTHWEST IOWA

CITY           SKY/WX    TMP DP  RH WIND       PRES   REMARKS
CHEROKEE       CLOUDY    64  43  45 NE13      29.92R
DENISON        CLOUDY    68  54  60 N18G24    29.84R
ESTHERVILLE    CLOUDY    60  45  57 N13       29.92R
LE MARS        CLOUDY    63  45  51 NE7G15    29.97R
ORANGE CITY    CLOUDY    63  39  42 NE6       29.96R
SHELDON        MOCLDY    63  43  48 N16G22    29.93R
SIOUX CITY     CLOUDY    68  39  34 N20       29.94R
SPENCER        MOCLDY    62  47  57 N10       29.93R
STORM LAKE     CLOUDY    61  54  77 NE16      29.91S
$$

ABBREVIATIONS USED IN REMARKS
   TC - TEMPERATURE IN CELSIUS
  WCI - WIND CHILL INDEX
   HX - HEAT INDEX
  VSB - VISIBILITY



USA.gov is the U.S. government's official web portal to all federal, state and local government web resources and services.